GW1540 Weather Reports


time (UTC)temp
C
wind
direction
speed
KPH
gust
KPH
rain 1hr
cm
rain 24hr
cm
rain mn
cm
humidity
%
barometer
mb
20260505124706 8 15 0.0 3.2 0.05 0.76 0.76 90 1014.3
20260505121712 8 15 0.0 3.2 0.03 0.71 0.71 90 1014.3
20260505114712 8 61 1.6 6.4 0.03 0.71 0.71 91 1014.4
20260505111717 8 257 0.0 0.0 0.18 0.71 0.71 92 1014.5
20260505110209 8 257 0.0 3.2 0.30 0.69 0.69 91 1014.5
20260505101714 8 276 1.6 8.0 0.46 0.51 0.51 90 1014.5
20260505100150 8 267 3.2 4.8 0.33 0.36 0.36 90 1014.5
20260505094644 8 342 1.6 9.7 0.20 0.20 0.20 89 1014.4
20260505091710 10 333 0.0 3.2 0.05 0.05 0.05 87 1014.2
20260505084722 10 235 0.0 0.0 0.00 0.00 0.00 88 1014.3
20260505081707 9 244 3.2 8.0 0.00 0.00 0.00 86 1014.4
20260505080207 9 259 0.0 4.8 0.00 0.00 0.00 86 1014.2
20260505074657 10 219 0.0 6.4 0.00 0.00 0.00 85 1014.3
20260505071701 10 243 0.0 4.8 0.00 0.00 0.00 81 1014.2
20260505070159 10 191 0.0 6.4 0.00 0.00 0.00 82 1014.2
20260505063220 10 302 0.0 6.4 0.00 0.00 0.00 85 1014.4
20260505060221 8 226 0.0 0.0 0.00 0.00 0.00 91 1014.3
20260505053210 7 226 0.0 0.0 0.00 0.00 0.00 94 1014.1
20260505050212 6 226 0.0 0.0 0.00 0.00 0.00 95 1014.0
20260505040207 5 226 0.0 0.0 0.00 0.00 0.00 94 1014.4
20260505033223 5 226 0.0 0.0 0.00 0.00 0.00 94 1014.6
20260505031650 4 226 0.0 0.0 0.00 0.00 0.00 94 1014.9
20260505024713 3 226 0.0 0.0 0.00 0.00 0.00 93 1015.1
20260505021653 5 226 0.0 0.0 0.00 0.00 0.00 95 1015.2
20260505014707 2 226 0.0 0.0 0.00 0.00 0.00 94 1015.7
20260505013203 1 226 0.0 0.0 0.00 0.00 0.00 93 1015.8
20260505011701 1 226 0.0 0.0 0.00 0.00 0.00 92 1016.0
20260505010150 1 226 0.0 0.0 0.00 0.00 0.00 92 1016.3
20260505003221 1 226 0.0 0.0 0.00 0.00 0.00 91 1016.6
20260505001710 1 226 0.0 0.0 0.00 0.00 0.00 92 1016.9
20260505000201 2 226 0.0 0.0 0.00 0.00 0.00 91 1016.8
20260504234657 2 226 0.0 0.0 0.00 0.00 0.00 91 1017.0
20260504231713 3 226 0.0 0.0 0.00 0.00 0.00 90 1017.2
20260504230210 3 226 0.0 0.0 0.00 0.00 0.00 90 1017.3
20260504224706 4 226 0.0 0.0 0.00 0.00 0.00 90 1017.4
20260504223204 4 226 0.0 0.0 0.00 0.00 0.00 91 1017.5
20260504220238 5 226 0.0 0.0 0.00 0.00 0.00 89 1017.6
20260504214705 5 226 0.0 0.0 0.00 0.00 0.00 88 1017.7
20260504211712 7 226 0.0 0.0 0.00 0.00 0.00 89 1017.7
20260504204703 7 226 0.0 3.2 0.00 0.00 0.00 84 1017.8
20260504201711 10 226 1.6 3.2 0.00 0.00 0.00 84 1017.5
20260504200148 10 226 1.6 4.8 0.00 0.00 0.00 82 1017.5
20260504193210 11 226 3.2 4.8 0.00 0.00 0.00 82 1017.5
20260504191705 11 226 1.6 4.8 0.00 0.00 0.00 82 1017.2
20260504184714 13 272 1.6 6.4 0.00 0.00 0.00 77 1017.1
20260504183159 13 213 3.2 6.4 0.00 0.00 0.00 73 1017.1
20260504180148 14 239 0.0 4.8 0.00 0.00 0.00 67 1017.0
20260504174650 14 207 1.6 4.8 0.00 0.00 0.00 66 1017.0
20260504171701 15 237 1.6 4.8 0.00 0.00 0.00 61 1017.2
20260504150210 17 84 3.2 14.5 0.00 0.00 0.00 55 1017.2